DECAYED

OBJECT G, 43668 (Decayed)

Orbit data source: Space-Track

You're viewing an Uncataloged Satellite

Recently launched and/or uncataloged satellites may have evolving metadata. Metadata may include but not limited to: Owner, Maufacturer, Bus, Motor, and Mission.

OBJECT G, 43668 was a satellite owned by Guodian Gaokeji (CN) in LEO that was launched on Mon, 29 Oct 2018 UTC via a CHANG ZHENG 2C launch vehicle from the Jiuquan Satellite Launch Center, China (JSC). Unknown objects in Earth's orbit typically refer to objects detected orbiting the Earth but have not yet been identified or cataloged. These objects could be anything from previously untracked satellites, spent rocket stages, debris from satellite collisions, or even natural meteoroids temporarily captured by Earth's gravity. This object's orbit decayed before it could be identified.

Not visible in the next 10 days
Identifier
43668, 2018-083G
Orbit
Decayed
Country
Flag of CNCN / PRC
Related business
None
Manufacturer
GUOG?
Mission
Decayed Commercial Communications
Bus & Motor
CUBESAT 6U?, Unknown motor
Mass
8 kg wet, 8 kg dry
Launch date (UTC)
2018-10-29 (7 years ago)
Launch vehicle
CHANG ZHENG 2C
Launch site
Jiuquan Satellite Launch Center, China (JSC)
Object type
Unknown
Shape & HBR
Box, 0.1 m
Radar Cross Section
0.080 m², Medium (>0.1 m² and < 1m²)

Expand to show TLE details & history
Last TLE update: 1 year ago

TLE from 1 year ago
0 OBJECT G
1 43668U 18083G   24242.60640799  .17607915  25949-5  18972-3 0  9992
2 43668  97.3019 279.9083 0012410 225.0961 134.9337 16.50034885324963
Epoch: 2024-08-29T14:33Z
TLE epoch observation values (Epoch: 2024-08-29T14:33:13.65Z)
Latitude
-0.00009°
Longitude
83.31009°
Altitude
148.23 km
Speed
7.814 km/s
True Right ascension
18h 39m 37s
True Declination
0° 00' 00"
Sunlit
Object was in full shadow at epoch
Visualization orbit readout
Latitude
Unknown
Longitude
Unknown
Altitude
Unknown
Speed
Unknown
Apparent Right ascension
Unknown
Apparent Declination
Unknown
Sunlit
N/A
Visualization observer readout
Local Sidereal Time
20:21:17
Azimuth
Unknown
Elevation
Unknown
Doppler factor
Unknown
Orbital elements
Apogee altitude
144.118 km
Perigee altitude
127.95 km
Semi-major axis
6,514.171 km
Eccentricity
0.00124
Inclination
97.3019°
RAAN
279.9083°
Arg. of periapsis
225.0961°
True anomaly
135.03426°
Mean anomaly
134.9337°
Eccentric anomaly
134.98399°
Mean motion
4.12814 °/min
Orbital period
87.21 mins
BSTAR
0.00018972
Loading maneuver chart data...
Computing Atmospheric mass density...
Loading historical data...
Loading historical data...
Loading historical data...
Loading historical data...
Loading historical data...
Loading historical data...
Loading historical data...

Documentation

Showing up to 5 results
|